Vertical_Velocity
-1 -2 1 -3 1 1 1 1 1 0 1 1 1 -1 -1 1 -0 -1 -1 2 3 3 1 1 -0 1 1 0 -1 1 1 1 2 -2 -2 1 2 2 1 -1 -2 1 -0 -1 -0 1 -0 1 0
1 -1 -1 -1 0 -0 0 1 -0 0 1 -0 1 -0 -2 -2 -0 2 -1 -0 0 1 2 2 1 0 1 2 4 2 -0 1 1 2 1 -1 2 2 3 0 -0 -3 -0 1 -4 -1 1 0 1
0 -1 0 -0 -0 -0 -0 -0 -2 -1 1 0 -1 -2 -1 -1 -1 -0 0 -2 -1 -1 -0 -0 0 0 -2 2 0 1 1 2 0 1 4 3 3 -2 3 5 -0 0 -2 -0 2 -2 -1 0 1
1 -0 -0 -1 1 1 -0 -1 -1 -1 -1 0 1 -1 -1 -0 -1 1 -1 -1 0 -0 -1 -1 -0 0 -0 -0 -1 1 2 2 3 3 3 5 2 0 7 3 6 -0 -1 -2 -0 1 -2 -1 -0
-1 2 1 1 0 0 -1 -0 -0 -1 -1 -2 -1 -0 -3 0 -1 -0 -0 1 1 -1 -1 -1 -2 0 1 1 0 -1 -2 -1 3 3 3 2 2 3 -1 6 3 4 0 -0 -1 -0 -2 -1 -1
-1 2 1 -0 -1 0 -1 -0 1 1 -0 -2 -1 1 -2 -1 0 -0 0 0 -0 -0 0 -0 -1 -2 -1 1 -0 -1 0 0 -0 1 2 2 1 1 -0 -1 6 3 5 1 3 -2 0 -1 -1
-0 -0 -2 -1 0 -1 -1 -1 0 2 -0 -1 -0 -1 -2 -1 -2 -2 0 -0 -0 1 1 -0 -0 -1 -1 -1 -2 -1 -1 1 1 2 1 7 4 1 3 2 1 2 1 4 1 2 -2 -0 0
-0 -2 -2 -1 -1 -2 -1 -0 0 -1 0 -2 -0 0 0 -1 -1 -1 -2 -1 -0 -1 -1 -1 -0 -1 0 -0 -2 -0 -0 0 2 3 2 5 9 8 4 0 7 3 1 4 4 1 2 -1 2
-1 -2 -2 -2 -0 -1 -0 -0 -1 -0 -0 -0 -0 -1 -1 -1 1 1 1 -2 -1 -2 -1 -1 0 1 -0 -2 1 1 0 0 1 2 2 1 -2 25 -1 7 8 10 5 -3 -0 -1 1 1 0
-2 -1 -2 -1 -0 0 1 -0 -1 -0 -1 -0 -2 -2 -1 -2 -0 1 -0 0 -1 -2 -0 -4 -3 -3 -1 -2 -2 -3 -3 -1 1 3 3 2 2 -5 21 20 4 13 12 -7 -1 -4 -2 -1 -1
-1 -1 -1 -1 -1 1 -0 0 -0 -0 -1 -0 1 -0 -1 1 -2 -1 -2 -3 0 1 -1 -1 -1 -2 -2 -2 -1 -1 -4 -5 -1 -0 -0 -1 1 0 -7 6 28 22 39 13 175 -12 -5 -3 -3
-2 -1 -1 -0 -1 0 0 0 1 0 -3 -2 -1 0 2 2 2 2 -0 -0 -0 1 1 -0 -2 -4 -3 -3 -2 -2 -3 1 -0 -1 1 -2 -1 6 -3 -23 43 20 -6 17 -3 59 40 10 11
-0 -0 -1 -1 -0 -1 0 -1 -2 -2 -1 0 -0 0 -0 0 -1 -3 -2 -0 -1 -1 -0 -2 -4 -2 -2 -3 -2 -1 -0 -4 -3 -4 -0 9 -6 -6 -4 -8 -14 7 23 1 12 24 34 -29 29
-0 -0 -2 -1 -1 -0 -0 -2 -3 -2 -1 -1 -0 -1 -1 -1 0 0 -1 -1 -1 0 -2 -3 -2 -3 -3 -2 -2 -3 -5 -2 2 -4 3 2 6 -7 -5 3 -2 -17 -14 -17 -16 -13 -26 4 3
-1 -1 -1 -2 -1 -2 -2 -1 -0 -0 0 -0 -1 -1 -1 -0 1 -0 -2 -0 -0 -2 -2 -2 -2 -3 -3 -2 -1 -3 -4 -5 -1 -4 -2 3 5 -6 -3 4 -6 -17 -17 -6 2 3 3 -4 -2
-1 -1 -1 -1 -1 -2 -1 -1 -1 -0 0 3 -1 -0 -0 3 -0 -1 -2 -2 -2 -1 -2 -0 -1 -4 -3 -2 0 -1 -2 -3 0 -2 -2 1 -9 -8 6 -9 1 -8 2 -15 2 4 1 1 -1
-1 -1 -1 -1 -0 -2 -2 5 -1 -3 1 1 1 1 1 1 -2 -3 -3 -1 -1 -1 -2 -2 -2 -3 -4 -2 -1 -3 -3 -4 -0 -3 -4 -2 8 6 4 -1 9 -1 4 5 -1 1 3 0 -0
-2 -1 -1 -2 -1 -1 -0 6 1 2 -3 -2 -0 -1 1 0 -2 -2 -2 -1 -1 -3 -3 -3 -2 -4 -3 -4 -2 -2 0 0 -1 -1 -1 -8 -2 2 -3 -17 -14 7 6 4 -1 1 2 -2 -2
-1 -2 -2 -1 -2 -5 -2 0 -0 -0 -1 1 1 0 1 -0 -2 -1 -1 -2 -4 -3 -2 -2 -3 -2 -2 -3 -4 -3 -2 -1 2 -1 -1 0 -1 -4 -0 2 3 3 2 -1 -1 4 1 1 -5
-0 -2 -2 -1 -1 -2 2 2 -1 -3 -2 0 0 1 1 -1 -2 -3 -3 -5 -2 -2 -0 -0 1 -0 -2 -3 -2 -2 -4 -1 -1 -1 1 -1 -2 2 -0 -0 1 3 1 1 -0 -0 1 2 -4
-2 -2 -2 -1 1 1 -1 -3 -1 -1 1 2 1 2 1 0 -2 -2 -3 -3 -3 -0 -1 -2 -3 -1 -0 1 1 2 1 -4 -2 -1 -1 0 -2 -3 -0 -0 -1 -2 2 2 1 -1 -3 -3 -1
-1 -1 -1 -1 3 -1 1 -5 0 1 1 1 2 1 0 -1 -1 -2 -2 -1 -3 -3 -2 -2 -1 -1 -1 0 1 1 2 3 -2 -3 -2 -2 -1 -2 -4 -4 -3 0 -1 -3 -3 -4 0 -3 1
-2 -2 -0 1 0 0 -1 -0 1 1 -0 1 3 1 0 0 -0 -1 -1 -1 -2 1 -0 -0 0 1 -1 -1 -0 -2 -3 -0 4 1 1 -2 0 -1 0 -1 -4 -2 -3 -3 -3 -2 -2 -1 2
-2 0 2 -0 -1 -2 -1 -1 0 2 2 2 1 -1 -1 -2 -2 -2 -0 -1 -1 -1 -1 0 -1 0 2 2 0 -0 3 3 2 -1 1 1 -1 1 -2 -1 0 -2 -2 -1 -1 -2 -1 -0 -0
3 1 -3 -6 -3 -3 -0 -0 -2 0 0 -0 -1 -0 -1 -1 -2 -2 -2 -0 -0 2 1 -1 -3 -4 -3 -2 1 3 0 -2 1 5 6 4 2 3 -0 -2 -1 2 1 1 0 1 1 -0 -0
-2 -2 -3 -3 -1 -3 0 -4 -2 -0 -1 -1 -1 -0 1 1 0 -1 -2 -2 -3 -1 -1 -1 -1 1 3 2 -1 -3 -1 3 3 -2 0 5 4 1 2 4 1 -0 -1 1 0 1 2 1 0
-1 -2 -1 -1 -0 -1 -1 -3 -2 1 -3 -1 -1 -2 -2 -2 -2 -2 -3 -4 -4 -3 -3 -1 -0 1 3 4 3 2 1 -2 -2 2 1 -4 4 6 6 1 4 2 3 1 1 1 1 -2 -0
-1 -1 -2 -1 -3 -1 -3 -4 -5 -1 -3 -2 -2 -2 -1 -1 -1 -1 0 -1 -2 -3 -4 -3 -2 -2 0 1 2 3 0 3 2 0 -1 -0 -1 -2 1 3 2 4 3 3 0 1 2 -2 3
-0 -1 -0 -1 -0 -3 -1 -7 0 1 1 -2 0 3 4 3 2 -0 1 1 0 -1 -1 -0 -2 -2 -2 -2 0 0 -1 2 -3 -4 -3 -4 -2 -1 -5 -2 -1 -2 3 3 1 1 1 0 0
-1 -1 2 -1 -2 -0 1 -30 0 -6 -0 3 2 1 1 -0 2 1 2 1 1 -0 -2 -2 1 2 -1 -3 -2 -4 -6 -5 -4 0 0 -1 -1 -3 -4 -2 -3 -2 -1 -1 1 1 1 -1 -0
Height
3169 3170 3172 3173 3178 3175 3175 3178 3177 3178 3178 3178 3178 3179 3180 3179 3180 3185 3181 3179 3178 3177 3177 3177 3177 3177 3176 3176 3175 3175 3175 3175 3175 3175 3174 3175 3174 3174 3174 3175 3175 3173 3173 3173 3171 3172 3172 3173 3173
3168 3170 3172 3173 3175 3173 3175 3175 3175 3176 3177 3177 3178 3178 3179 3178 3178 3178 3178 3177 3176 3175 3174 3174 3174 3174 3174 3173 3173 3173 3173 3173 3173 3172 3173 3173 3172 3172 3172 3172 3173 3173 3172 3172 3172 3171 3172 3172 3173
3167 3169 3172 3172 3171 3172 3173 3173 3174 3175 3176 3176 3177 3177 3176 3176 3176 3175 3174 3174 3173 3173 3172 3171 3171 3170 3170 3170 3170 3170 3170 3170 3170 3170 3170 3170 3169 3169 3169 3170 3170 3170 3171 3170 3171 3171 3170 3171 3172
3167 3169 3172 3170 3170 3171 3172 3173 3173 3174 3175 3175 3175 3175 3174 3173 3173 3172 3171 3170 3170 3169 3168 3167 3166 3166 3165 3165 3165 3165 3165 3165 3166 3166 3166 3165 3166 3167 3166 3166 3167 3167 3167 3169 3169 3169 3169 3169 3170
3166 3168 3168 3168 3169 3169 3171 3172 3172 3173 3173 3173 3172 3171 3170 3170 3170 3169 3167 3167 3166 3165 3164 3163 3162 3162 3162 3161 3161 3160 3160 3160 3160 3159 3160 3160 3161 3161 3162 3162 3162 3163 3164 3165 3166 3166 3167 3168 3168
3165 3166 3166 3167 3167 3168 3169 3170 3170 3170 3170 3170 3170 3169 3167 3166 3165 3165 3164 3163 3162 3160 3160 3159 3158 3157 3157 3156 3155 3155 3155 3154 3153 3153 3153 3154 3156 3156 3156 3157 3157 3159 3159 3160 3161 3163 3163 3164 3166
3163 3164 3165 3166 3166 3166 3167 3168 3168 3167 3167 3167 3167 3166 3165 3163 3162 3161 3160 3159 3157 3156 3155 3154 3153 3152 3151 3150 3149 3148 3148 3148 3146 3146 3146 3147 3149 3151 3151 3152 3152 3154 3154 3155 3157 3158 3159 3161 3163
3162 3164 3164 3164 3164 3164 3164 3164 3165 3165 3165 3164 3163 3162 3162 3161 3158 3156 3155 3154 3154 3153 3151 3150 3148 3146 3145 3143 3141 3140 3139 3138 3137 3137 3137 3138 3140 3141 3143 3144 3146 3148 3149 3150 3151 3153 3154 3156 3158
3161 3163 3162 3162 3162 3162 3162 3163 3163 3163 3162 3160 3159 3158 3157 3156 3155 3153 3151 3150 3150 3149 3147 3146 3144 3142 3139 3136 3133 3131 3130 3129 3129 3128 3128 3129 3128 3129 3134 3136 3137 3141 3142 3143 3145 3147 3149 3151 3153
3160 3160 3160 3160 3160 3160 3160 3161 3161 3160 3158 3157 3156 3154 3153 3152 3151 3149 3148 3148 3146 3145 3143 3141 3139 3136 3132 3128 3125 3123 3121 3120 3120 3119 3118 3118 3120 3120 3119 3123 3127 3132 3135 3136 3136 3138 3141 3144 3147
3157 3158 3158 3158 3158 3159 3158 3158 3157 3157 3156 3154 3153 3152 3151 3149 3148 3147 3144 3143 3142 3140 3139 3137 3134 3131 3127 3123 3118 3115 3114 3114 3113 3113 3111 3110 3111 3111 3110 3107 3109 3118 3122 3121 3098 3125 3134 3138 3141
3156 3156 3156 3157 3157 3157 3156 3155 3154 3153 3152 3151 3150 3150 3149 3147 3146 3145 3143 3140 3138 3136 3135 3132 3129 3125 3120 3116 3113 3111 3110 3110 3109 3108 3108 3107 3105 3104 3103 3100 3091 3099 3111 3108 3114 3110 3124 3131 3135
3154 3155 3155 3155 3154 3154 3153 3152 3151 3150 3149 3147 3146 3146 3145 3144 3142 3141 3139 3137 3134 3132 3130 3127 3124 3120 3116 3112 3109 3107 3107 3106 3105 3105 3105 3104 3100 3100 3099 3097 3099 3095 3098 3105 3109 3102 3111 3114 3126
3152 3152 3152 3152 3152 3151 3150 3149 3147 3147 3146 3145 3144 3143 3142 3141 3139 3138 3136 3133 3131 3129 3127 3123 3120 3117 3112 3108 3106 3104 3102 3102 3103 3101 3102 3102 3100 3100 3100 3097 3100 3099 3100 3107 3112 3113 3118 3120 3124
3150 3151 3150 3150 3149 3149 3148 3147 3145 3144 3143 3142 3141 3140 3138 3137 3137 3136 3133 3131 3129 3127 3124 3121 3117 3113 3109 3106 3103 3100 3099 3100 3100 3099 3099 3099 3099 3099 3102 3099 3100 3102 3101 3108 3113 3117 3120 3122 3124
3148 3149 3148 3148 3147 3147 3147 3144 3142 3141 3139 3138 3137 3136 3136 3136 3134 3132 3130 3128 3126 3124 3121 3118 3114 3110 3106 3102 3100 3098 3098 3097 3097 3097 3096 3096 3096 3096 3102 3101 3099 3105 3107 3108 3112 3114 3116 3118 3120
3146 3146 3146 3146 3145 3145 3144 3142 3139 3137 3136 3134 3132 3133 3134 3134 3133 3130 3128 3125 3123 3121 3118 3115 3112 3108 3104 3100 3098 3096 3096 3095 3094 3094 3095 3095 3096 3094 3098 3101 3103 3102 3103 3106 3108 3110 3112 3114 3115
3143 3143 3144 3143 3143 3141 3139 3138 3135 3133 3132 3130 3130 3131 3132 3131 3130 3128 3126 3123 3121 3118 3115 3112 3109 3106 3103 3100 3097 3096 3095 3094 3093 3094 3095 3094 3095 3095 3095 3098 3100 3098 3101 3101 3104 3105 3106 3108 3110
3141 3141 3141 3141 3139 3137 3134 3132 3130 3127 3126 3127 3128 3129 3129 3129 3128 3126 3124 3122 3119 3116 3113 3110 3107 3105 3102 3099 3096 3095 3093 3092 3093 3094 3095 3095 3094 3094 3095 3096 3096 3095 3096 3098 3099 3099 3100 3102 3102
3139 3139 3139 3138 3136 3132 3130 3128 3125 3124 3124 3125 3126 3127 3126 3126 3125 3124 3122 3119 3115 3113 3110 3108 3106 3103 3101 3099 3096 3095 3093 3092 3091 3092 3093 3093 3093 3092 3092 3093 3092 3093 3093 3093 3093 3094 3094 3094 3094
3138 3137 3136 3135 3132 3129 3126 3124 3122 3123 3123 3123 3124 3124 3124 3123 3122 3121 3119 3116 3113 3110 3108 3105 3103 3101 3100 3098 3097 3095 3093 3091 3090 3088 3087 3088 3089 3089 3088 3088 3088 3088 3088 3088 3087 3086 3087 3087 3088
3136 3135 3133 3130 3129 3127 3125 3124 3120 3120 3120 3121 3121 3121 3120 3120 3119 3119 3117 3114 3112 3109 3106 3103 3101 3098 3097 3096 3094 3093 3092 3090 3088 3086 3084 3082 3082 3083 3084 3083 3083 3081 3081 3081 3081 3080 3080 3081 3082
3135 3132 3129 3126 3124 3123 3122 3123 3117 3117 3117 3119 3118 3117 3117 3117 3117 3116 3114 3112 3110 3107 3104 3102 3099 3097 3094 3092 3090 3089 3087 3086 3085 3083 3082 3080 3078 3076 3076 3076 3076 3075 3075 3075 3075 3075 3074 3075 3075
3131 3129 3125 3122 3121 3121 3122 3124 3116 3116 3116 3116 3115 3114 3114 3114 3113 3112 3111 3109 3107 3105 3102 3100 3098 3095 3092 3089 3087 3085 3083 3082 3081 3079 3078 3077 3075 3073 3071 3069 3070 3070 3069 3069 3068 3069 3069 3069 3068
3130 3128 3125 3124 3122 3123 3122 3122 3114 3113 3112 3112 3112 3112 3112 3111 3110 3109 3108 3106 3105 3102 3100 3097 3094 3092 3089 3087 3084 3082 3080 3078 3076 3074 3073 3072 3071 3069 3067 3066 3064 3063 3063 3062 3062 3062 3062 3062 3062
3128 3128 3129 3133 3129 3123 3120 3115 3111 3109 3109 3109 3109 3109 3108 3107 3106 3105 3104 3102 3101 3098 3096 3093 3090 3087 3085 3082 3080 3078 3076 3075 3073 3071 3068 3066 3065 3064 3062 3061 3060 3058 3057 3055 3055 3054 3054 3054 3054
3126 3127 3128 3127 3125 3124 3115 3111 3109 3106 3106 3106 3106 3105 3105 3104 3102 3101 3099 3096 3095 3093 3090 3087 3085 3083 3081 3078 3076 3074 3073 3071 3070 3067 3065 3063 3061 3058 3057 3055 3055 3053 3051 3049 3047 3046 3046 3045 3045
3124 3126 3125 3125 3127 3123 3111 3107 3103 3103 3102 3103 3102 3101 3101 3099 3097 3095 3092 3090 3088 3086 3083 3081 3080 3078 3077 3075 3073 3071 3068 3066 3064 3062 3060 3058 3056 3054 3051 3049 3048 3046 3045 3043 3041 3039 3038 3036 3035
3121 3121 3121 3123 3122 3119 3116 3102 3101 3101 3100 3099 3099 3098 3097 3094 3091 3089 3086 3084 3082 3079 3077 3075 3074 3073 3071 3069 3067 3064 3063 3061 3058 3055 3052 3050 3048 3046 3045 3042 3040 3039 3037 3035 3032 3031 3030 3029 3027
3116 3117 3118 3118 3119 3117 3114 3096 3098 3097 3096 3095 3095 3094 3092 3090 3087 3083 3080 3077 3075 3073 3070 3069 3067 3066 3064 3062 3060 3058 3055 3053 3050 3047 3045 3042 3039 3036 3033 3032 3030 3029 3027 3025 3023 3022 3020 3019 3019